Weather History for KLVM - November, 2013

Change the Weather History Date:

Thursday, November 7, 2013

  Actual Average Record
Temperature  
Mean Temperature 44 °F 37 °F  
Max Temperature 56 °F 48 °F 72 °F (1999)
Min Temperature 32 °F 27 °F 4 °F (1973)
Degree Days  
Heating Degree Days 21 28  
Month to date heating degree days 183 185  
Since 1 July heating degree days 1035 1213  
Cooling Degree Days 0 0  
Month to date cooling degree days 0  
Year to date cooling degree days 230  
Moisture  
Dew Point 29 °F    
Average Humidity 57    
Maximum Humidity 75    
Minimum Humidity 38    
Precipitation  
Precipitation T in 0.02 in 0.33 in (1995)
Month to date precipitation 0.21 0.14  
Year to date precipitation 11.15 13.84  
Sea Level Pressure  
Sea Level Pressure 30.00 in    
Wind  
Wind Speed 22 mph (WSW)    
Max Wind Speed 44 mph    
Max Gust Speed 58 mph    
Visibility 10 miles    
Events      
T = Trace of Precipitation, MM = Missing Value Source: NWS Daily Summary

Daily Weather History Graph

Daily Weather History Graph

Search for Another Location

Airport or City:

Trip Planner

Search our weather history database for the weather conditions in past years. The results will help you decide how hot, cold, wet, or windy it might be!

Date:

Astronomy

Nov. 07, 2013 Rise Set
Actual Time 7:10 AM MST 4:59 PM MST
Civil Twilight 6:39 AM MST 5:31 PM MST
Nautical Twilight 6:03 AM MST 6:06 PM MST
Astronomical Twilight 5:28 AM MST 6:41 PM MST
Moon 11:24 AM MST (11/7) 9:13 PM MST (11/7)
Length of Visible Light 10h 52m
Length of Day
9h 49m
Waxing Crescent, 23% of the Moon is Illuminated
Nov 7
Waxing Crescent
Nov 9
First Quarter
Nov 17
Full
Nov 25
Last Quarter
Dec 2
New

Hourly Weather History & Observations

Time (MST) Temp. Windchill Dew Point Humidity Pressure Visibility Wind Dir Wind Speed Gust Speed Precip Events Conditions
12:53 AM 35.1 °F 28.6 °F 28.0 °F 76% 30.31 in 10.0 mi NW 8.1 mph - N/A   Overcast
1:53 AM 35.1 °F 27.4 °F 28.9 °F 78% 30.28 in 10.0 mi WNW 10.4 mph - N/A   Overcast
2:53 AM 36.0 °F 27.1 °F 28.0 °F 73% 30.27 in 10.0 mi NW 13.8 mph - N/A   Overcast
3:53 AM 37.0 °F 28.9 °F 28.0 °F 70% 30.26 in 10.0 mi NW 12.7 mph - N/A   Overcast
4:53 AM 36.0 °F 28.5 °F 28.0 °F 73% 30.28 in 10.0 mi NNW 10.4 mph - N/A   Overcast
5:53 AM 34.0 °F 26.0 °F 27.0 °F 75% 30.27 in 10.0 mi NNW 10.4 mph - N/A   Partly Cloudy
6:53 AM 33.1 °F 26.9 °F 27.0 °F 78% 30.26 in 10.0 mi WNW 6.9 mph - N/A   Clear
7:53 AM 33.1 °F 24.9 °F 26.1 °F 75% 30.25 in 10.0 mi WNW 10.4 mph 20.7 mph N/A   Clear
8:53 AM 42.1 °F 34.5 °F 28.9 °F 60% 30.18 in 10.0 mi West 15.0 mph - N/A   Clear
9:53 AM 46.0 °F 41.9 °F 28.9 °F 51% 30.13 in 10.0 mi SW 8.1 mph - N/A   Partly Cloudy
10:53 AM 52.0 °F - 30.0 °F 43% 30.08 in 10.0 mi SSW 15.0 mph 34.5 mph N/A   Clear
11:53 AM 55.9 °F - 30.0 °F 37% 30.01 in 10.0 mi SSW 20.7 mph 31.1 mph N/A   Clear
12:53 PM 53.1 °F - 28.9 °F 40% 29.99 in 10.0 mi SW 32.2 mph 43.7 mph N/A   Clear
1:53 PM 53.1 °F - 28.9 °F 40% 29.94 in 10.0 mi SW 29.9 mph 42.6 mph N/A   Partly Cloudy
2:53 PM 53.1 °F - 28.9 °F 40% 29.90 in 10.0 mi SW 31.1 mph 44.9 mph N/A   Overcast
3:53 PM 52.0 °F - 28.9 °F 41% 29.87 in 10.0 mi SW 36.8 mph 49.5 mph N/A   Overcast
4:53 PM 50.0 °F - 30.9 °F 48% 29.86 in 10.0 mi SW 35.7 mph 49.5 mph N/A   Overcast
5:53 PM 48.9 °F - 30.0 °F 48% 29.82 in 10.0 mi SW 23.0 mph 42.6 mph N/A   Overcast
6:53 PM 48.9 °F - 30.0 °F 48% 29.81 in 10.0 mi SW 27.6 mph 36.8 mph 0.00 in   Overcast
7:53 PM 48.9 °F - 30.9 °F 50% 29.75 in 10.0 mi SW 25.3 mph 34.5 mph N/A   Mostly Cloudy
8:53 PM 48.9 °F - 30.9 °F 50% 29.71 in 10.0 mi SW 29.9 mph 43.7 mph N/A   Mostly Cloudy
9:53 PM 51.1 °F - 30.9 °F 46% 29.64 in 10.0 mi SW 35.7 mph 49.5 mph N/A   Mostly Cloudy
10:53 PM 52.0 °F - 30.0 °F 43% 29.59 in 10.0 mi SSW 41.4 mph 58.7 mph N/A   Mostly Cloudy
11:53 PM 48.9 °F - 33.1 °F 54% 29.61 in 10.0 mi SW 38.0 mph 49.5 mph 0.00 in   Overcast